Regional Weather Roundup
Issued by NWS Midland/Odessa, TX

Skip options and go directly to product.
Home | Oldest Version | Previous Version | Current Version | All | Text Only | Save Text | Print | Product List | Glossary Off

Skip product version selection by date and time.   

144
ASUS44 KMAF 192010
RWRMAF
MIDLAND AREA WEATHER ROUNDUP
NATIONAL WEATHER SERVICE MIDLAND TX
300 PM CDT SAT APR 19 2014

...IN SOUTHWEST TEXAS AND SOUTHEAST NEW MEXICO...

CITY           SKY/WX    TMP DP  RH WIND       PRES   REMARKS
ALPINE         MOSUNNY   77  46  32 SE5       30.11F
ANDREWS        RAIN      65  58  76 SW9G15    30.11F
ARTESIA        CLOUDY    57  54  88 SW8G16    30.10R
BIG SPRING     PTSUNNY   79  51  36 S18G24    30.12R
CARLSBAD       CLOUDY    62  58  86 NE10      30.05R
DRYDEN           N/A     84  53  34 E17G26    30.01F
FORT STOCKTON  PTSUNNY   77  53  43 E18       30.03F
GUAD PASS      NOT AVBL
HOBBS          LGT RAIN  63  55  77 W12       30.16S
MARFA          MOSUNNY   73  45  35 S7        30.10S
MIDLAND AIRPK  PTSUNNY   74  51  43 SW16      30.10R
MIDLAND INTL   CLOUDY    74  52  46 S16       30.10R
ODESSA         CLOUDY    75  52  44 S10G22    30.09S
PECOS          CLOUDY    68  55  62 N15       30.03F
PRESIDIO       FAIR      84  47  27 E9        29.94F
SEMINOLE       HVY RAIN  64  58  83 W8        30.13R
SNYDER         MOSUNNY   75  53  46 S10G23    30.09F
WINK           LGT RAIN  71  55  56 NW9       30.06F
$$
...OTHER STATIONS IN TEXAS...

CITY           SKY/WX    TMP DP  RH WIND       PRES   REMARKS
ABILENE        CLOUDY    74  50  42 SE20      30.08F
AMARILLO       CLOUDY    71  50  47 S23G35    30.07F
AUSTIN         CLOUDY    77  54  44 S10       30.12F
BROWNSVILLE    PTSUNNY   79  64  60 SE16      30.09F
CORPUS CHRISTI MOSUNNY   80  59  48 E13G22    30.11F
DALLAS FTW     PTSUNNY   77  53  43 S7        30.13F
DEL RIO        CLOUDY    77  51  40 SE16G26   30.05F
EL PASO        PTSUNNY   75  47  36 N10G25    30.01F
HOUSTON INT    MOSUNNY   78  56  46 E3        30.13F
LUBBOCK        CLOUDY    70  52  52 S9        30.11S
SAN ANGELO     PTSUNNY   79  52  38 S15G24    30.07F
SAN ANTONIO    PTSUNNY   80  53  39 SE10      30.11F
WACO           PTSUNNY   75  55  49 SE9       30.13F
WICHITA FALLS  NOT AVBL
$$
...OTHER LOCATIONS IN NEW MEXICO...

CITY           SKY/WX    TMP DP  RH WIND       PRES   REMARKS
ALAMAGORDO     LGT RAIN  64  48  55 N14G20    30.10S
ALBUQUERQUE    CLOUDY    56  46  69 S16       30.13S
CANNON AFB     CLOUDY    62  50  66 S15       30.12S
CLOVIS         CLOUDY    61  48  63 S16       30.14R
HOLLOMAN AFB   LGT RAIN  64  52  63 N13       30.09R
ROSWELL        CLOUDY    57  55  93 SE10      30.12R
RUIDOSO        CLOUDY    48  45  87 NW12      30.21S
SANTA FE       CLOUDY    63  34  33 SW15      30.10S
TRUTH OR CONSE MOSUNNY   62  47  57 NE12      30.09F
TUCUMCARI      CLOUDY    72  47  40 SW28G36   30.05R
$$

USA.gov is the U.S. government's official web portal to all federal, state and local government web resources and services.